TimeEDT,TemperatureF,Dew PointF,Humidity,Sea Level PressureIn,VisibilityMPH,Wind Direction,Wind SpeedMPH,Gust SpeedMPH,PrecipitationIn,Events,Conditions,WindDirDegrees,DateUTC
12:52 AM,72.0,69.1,91,30.16,10.0,Calm,Calm,-,N/A,,Partly Cloudy,0,2013-08-21 04:52:00
1:52 AM,71.1,68.0,90,30.16,10.0,Calm,Calm,-,N/A,,Scattered Clouds,0,2013-08-21 05:52:00
2:52 AM,70.0,66.9,90,30.17,7.0,Calm,Calm,-,N/A,,Scattered Clouds,0,2013-08-21 06:52:00
3:52 AM,66.9,66.0,97,30.16,6.0,Calm,Calm,-,N/A,,Scattered Clouds,0,2013-08-21 07:52:00
4:52 AM,69.1,66.9,93,30.16,6.0,Calm,Calm,-,N/A,,Partly Cloudy,0,2013-08-21 08:52:00
5:52 AM,68.0,66.0,93,30.17,6.0,Calm,Calm,-,N/A,Fog,Patches of Fog,0,2013-08-21 09:52:00
6:52 AM,69.1,66.9,93,30.19,5.0,Calm,Calm,-,N/A,Fog,Patches of Fog,0,2013-08-21 10:52:00
7:09 AM,69.8,68.0,94,30.19,5.0,Calm,Calm,-,N/A,Fog,Patches of Fog,0,2013-08-21 11:09:00
7:52 AM,71.1,69.1,93,30.19,4.0,Calm,Calm,-,N/A,Fog,Patches of Fog,0,2013-08-21 11:52:00
8:35 AM,73.4,69.8,88,30.21,7.0,Calm,Calm,-,N/A,,Mostly Cloudy,0,2013-08-21 12:35:00
8:52 AM,75.9,71.1,85,30.21,7.0,WSW,3.5,-,N/A,,Mostly Cloudy,250,2013-08-21 12:52:00
9:52 AM,77.0,71.1,82,30.21,8.0,South,4.6,-,N/A,,Mostly Cloudy,180,2013-08-21 13:52:00
10:52 AM,81.0,70.0,69,30.20,10.0,SSW,8.1,-,N/A,,Mostly Cloudy,210,2013-08-21 14:52:00
11:52 AM,82.0,69.1,65,30.19,10.0,SW,9.2,-,0.01,,Mostly Cloudy,220,2013-08-21 15:52:00
12:52 PM,84.0,69.1,61,30.19,10.0,SSW,10.4,-,N/A,,Mostly Cloudy,210,2013-08-21 16:52:00
1:52 PM,84.9,69.1,59,30.16,10.0,South,9.2,-,N/A,,Mostly Cloudy,180,2013-08-21 17:52:00
2:52 PM,88.0,69.1,53,30.13,10.0,Variable,5.8,-,N/A,,Mostly Cloudy,0,2013-08-21 18:52:00
3:52 PM,88.0,68.0,51,30.11,10.0,Variable,5.8,-,N/A,,Mostly Cloudy,0,2013-08-21 19:52:00
4:52 PM,86.0,68.0,55,30.10,10.0,South,4.6,-,N/A,,Mostly Cloudy,180,2013-08-21 20:52:00
5:52 PM,84.0,68.0,58,30.10,10.0,SW,8.1,-,N/A,,Mostly Cloudy,220,2013-08-21 21:52:00
6:52 PM,82.9,68.0,60,30.09,10.0,SSW,6.9,-,N/A,,Mostly Cloudy,210,2013-08-21 22:52:00
7:44 PM,80.6,69.8,70,30.09,10.0,South,4.6,-,N/A,Thunderstorm,Thunderstorm,190,2013-08-21 23:44:00
7:52 PM,80.1,69.1,69,30.08,10.0,South,3.5,-,N/A,Thunderstorm,Thunderstorm,170,2013-08-21 23:52:00
8:52 PM,79.0,72.0,79,30.10,10.0,SW,10.4,16.1,0.00,Rain-Thunderstorm,Light Thunderstorms and Rain,230,2013-08-22 00:52:00
9:12 PM,73.4,69.8,88,30.11,7.0,SSW,8.1,-,0.01,Rain-Thunderstorm,Light Thunderstorms and Rain,200,2013-08-22 01:12:00
9:52 PM,73.0,70.0,90,30.10,6.0,Calm,Calm,-,0.09,Rain-Thunderstorm,Light Thunderstorms and Rain,0,2013-08-22 01:52:00
10:20 PM,73.4,69.8,88,30.11,10.0,Calm,Calm,-,0.00,,Overcast,0,2013-08-22 02:20:00
10:52 PM,72.0,70.0,93,30.11,10.0,SE,5.8,-,0.00,,Overcast,140,2013-08-22 02:52:00
11:52 PM,71.1,69.1,93,30.09,10.0,South,4.6,-,N/A,,Mostly Cloudy,180,2013-08-22 03:52:00